Regional Weather Roundup
Issued by NWS

Home | Current Version | Previous Version | Text Only | Print | Product List | Glossary Off
Versions: 1 2 3 4 5 6 7 8 9 10 11 12 13 14 15 16 17 18 19 20 21 22 23 24 25 26 27 28 29 30 31 32 33 34 35 36 37 38 39 40 41 42 43 44 45 46 47 48 49 50

000
ASUS45 KABQ 011401
RWRNM
WEATHER ROUNDUP FOR NEW MEXICO
NATIONAL WEATHER SERVICE ALBUQUERQUE NM
800 AM MDT WED OCT 01 2014

NOTE: "FAIR" MEANS FEW OR NO CLOUDS BELOW 12,000 FEET AGL WITH NO
       SIGNIFICANT WEATHER OR OBSTRUCTIONS TO VISION.

      THIS PRODUCT IS RELEASED AS TWO VERSIONS.  ONE VERSION NEAR
      THE TOP OF THE HOUR CONTAINING PRELIMINARY DATA FROM ALBUQUERQUE
      AND OTHER STATIONS.  A FINAL VERSION WITH ADDITIONAL DATA IS
      ISSUED ABOUT 10 MINUTES AFTER THE HOUR.

NMZ501-503-504-510>518-011500-
NORTHWEST PLATEAU/NORTHCENTRAL MOUNTAINS

CITY           SKY/WX    TMP DP  RH WIND       PRES   REMARKS
FARMINGTON     CLOUDY    48  40  73 E6        29.96R
LOS ALAMOS     SUNNY     47  32  55 CALM      30.06R
SANTA FE       SUNNY     46  32  58 N5        30.02R
TAOS           SUNNY     36  30  80 N3        30.06S
ANGEL FIRE     FAIR      28  26  91 CALM      30.10S

$$
NMZ402-403-502-505>509-011500-
WESTCENTRAL MOUNTAINS/SOUTHWEST MOUNTAINS

CITY           SKY/WX    TMP DP  RH WIND       PRES   REMARKS
GALLUP         CLEAR     46  37  71 S6        30.04R
GRANTS         MOSUNNY   36  30  80 CALM      30.07R
SILVER CITY    SUNNY     50  37  62 NW7       30.03R

$$
NMZ407-409-411-412-011500-
SOUTHERN DESERTS

CITY           SKY/WX    TMP DP  RH WIND       PRES   REMARKS
LORDSBURG      FAIR      50  37  62 MISG      29.98R
DEMING         SUNNY     55  39  54 SW7       29.96R
LAS CRUCES     SUNNY     58  38  48 W7        29.97R
HOLLOMAN AFB   MOSUNNY   59  38  45 S6        29.92R
ALAMOGORDO     MOSUNNY   55  37  50 SW3       29.94R
T OR C         SUNNY     58  34  40 N6        29.97R

$$
NMZ519>523-011500-
CENTRAL VALLEYS/CENTRAL HIGHLANDS

CITY           SKY/WX    TMP DP  RH WIND       PRES   REMARKS
ALBUQUERQUE    SUNNY     49  34  56 E5        30.00R
DOUBLE EAGLE   MOSUNNY   45  32  61 CALM      30.02R
CLINES CORNERS MOSUNNY   49  32  52 NW7       30.03R
BELEN          NOT AVBL
SOCORRO        FAIR      54  39  57 CALM      29.98R

$$
NMZ524>526-539-540-011500-
SOUTHCENTRAL MOUNTAINS

CITY           SKY/WX    TMP DP  RH WIND       PRES   REMARKS
RUIDOSO        NOT AVBL

$$
NMZ527>531-011500-
NORTHEAST HIGHLANDS/NORTHEAST PLAINS

CITY           SKY/WX    TMP DP  RH WIND       PRES   REMARKS
LAS VEGAS      SUNNY     48  30  49 N3        30.02R
RATON          SUNNY     41  36  82 NE6       29.98R
CLAYTON        SUNNY     61  36  39 NW12      29.90R

$$
NMZ532>537-011500-
EASTCENTRAL PLAINS

CITY           SKY/WX    TMP DP  RH WIND       PRES   REMARKS
TUCUMCARI      SUNNY     54  44  69 W3        29.89R
CANNON AFB     SUNNY     59  42  53 N8        29.90R
CLOVIS AIRPORT   N/A     57  43  58 N7        29.92R

$$
NMZ028-029-538-011500-
SOUTHEAST PLAINS

CITY           SKY/WX    TMP DP  RH WIND       PRES   REMARKS
ROSWELL        SUNNY     58  46  64 CALM      29.90R
CARLSBAD       SUNNY     65  48  54 W12       29.88R
HOBBS          SUNNY     61  61 100 CALM      29.90R


$$


USA.gov is the U.S. government's official web portal to all federal, state and local government web resources and services.